CW3007 Weather Reports


Display with metric or nautical units.
time (UTC)temp
F
wind
direction
speed
MPH
gust
MPH
rain 1hr
in
rain 24hr
in
rain mn
in
humidity
%
barometer
mb
20201203101204 37 272 1.0 2.0 0.00 0.00 0.00 74 1023.9
20201203100205 37 300 0.0 0.0 0.00 0.00 0.00 73 1023.8
20201203095209 37 300 0.0 2.0 0.00 0.00 0.00 73 1023.8
20201203094207 37 302 0.0 2.0 0.00 0.00 0.00 73 1024.0
20201203093205 38 302 0.0 1.0 0.00 0.00 0.00 73 1023.9
20201203092207 38 303 0.0 2.0 0.00 0.00 0.00 72 1023.8
20201203091204 38 301 1.0 3.0 0.00 0.00 0.00 72 1023.8
20201203090210 38 294 1.0 3.0 0.00 0.00 0.00 73 1024.1
20201203085204 38 292 2.0 3.0 0.00 0.00 0.00 73 1024.0
20201203084207 38 281 0.0 2.0 0.00 0.00 0.00 74 1024.0
20201203083204 38 271 1.0 3.0 0.00 0.00 0.00 73 1023.9
20201203082205 38 308 0.0 1.0 0.00 0.00 0.00 73 1023.9
20201203081207 38 306 0.0 2.0 0.00 0.00 0.00 73 1023.8
20201203080205 38 305 0.0 2.0 0.00 0.00 0.00 73 1023.8
20201203075204 38 298 1.0 2.0 0.00 0.00 0.00 72 1023.9
20201203074204 38 310 1.0 3.0 0.00 0.00 0.00 72 1023.9
20201203073205 39 286 1.0 3.0 0.00 0.00 0.00 71 1023.9
20201203072206 39 305 2.0 4.0 0.00 0.00 0.00 71 1023.8
20201203071205 39 304 2.0 8.0 0.00 0.00 0.00 71 1023.8
20201203070206 39 313 0.0 5.0 0.00 0.00 0.00 71 1023.8
20201203065204 39 340 3.0 4.0 0.00 0.00 0.00 72 1023.9
20201203064205 39 92 0.0 2.0 0.00 0.00 0.00 71 1024.0
20201203063206 39 282 1.0 2.0 0.00 0.00 0.00 71 1023.9
20201203062205 39 288 0.0 3.0 0.00 0.00 0.00 71 1023.9
20201203061204 39 318 1.0 1.0 0.00 0.00 0.00 70 1023.9
20201203060208 40 300 1.0 2.0 0.00 0.00 0.00 69 1023.9
20201203055205 40 288 1.0 2.0 0.00 0.00 0.00 69 1024.0
20201203054204 40 301 0.0 1.0 0.00 0.00 0.00 69 1024.0
20201203053206 40 302 0.0 1.0 0.00 0.00 0.00 69 1024.1
20201203052209 40 302 0.0 0.0 0.00 0.00 0.00 68 1024.0
20201203051204 40 302 0.0 1.0 0.00 0.00 0.00 68 1024.1
20201203050224 40 302 1.0 2.0 0.00 0.00 0.00 67 1023.9
20201203045218 41 320 0.0 1.0 0.00 0.00 0.00 66 1023.9
20201203044205 41 320 0.0 0.0 0.00 0.00 0.00 65 1024.0
20201203043205 42 320 0.0 0.0 0.00 0.00 0.00 64 1023.9
20201203042205 43 320 0.0 2.0 0.00 0.00 0.00 63 1023.8
20201203041204 43 319 1.0 4.0 0.00 0.00 0.00 62 1023.9
20201203040204 44 320 4.0 4.0 0.00 0.00 0.00 61 1024.0
20201203035208 45 311 4.0 5.0 0.00 0.00 0.00 60 1023.8
20201203034213 45 346 3.0 11.0 0.00 0.00 0.00 59 1023.8
20201203033206 46 11 3.0 8.0 0.00 0.00 0.00 59 1023.6
20201203032204 46 326 3.0 6.0 0.00 0.00 0.00 57 1023.6
20201203031207 47 301 8.0 9.0 0.00 0.00 0.00 56 1023.5
20201203030204 47 317 6.0 11.0 0.00 0.00 0.00 55 1023.5
20201203025204 47 329 4.0 11.0 0.00 0.00 0.00 54 1023.3
20201203024207 48 306 8.0 13.0 0.00 0.00 0.00 53 1023.1
20201203023204 48 334 5.0 14.0 0.00 0.00 0.00 53 1022.9
20201203022204 49 317 11.0 14.0 0.00 0.00 0.00 53 1022.7
20201203021206 49 317 15.0 17.0 0.00 0.00 0.00 52 1022.4
20201203020206 50 325 8.0 17.0 0.00 0.00 0.00 52 1022.2
20201203015206 50 347 10.0 17.0 0.00 0.00 0.00 51 1022.0
20201203014205 51 355 9.0 14.0 0.00 0.00 0.00 51 1021.9
20201203013205 51 344 5.0 14.0 0.00 0.00 0.00 50 1021.7
20201203012205 51 339 11.0 13.0 0.00 0.00 0.00 49 1021.5
20201203011206 51 335 8.0 9.0 0.00 0.00 0.00 48 1021.2
20201203010204 52 315 3.0 4.0 0.00 0.00 0.00 46 1021.1
20201203005207 53 333 2.0 6.0 0.00 0.00 0.00 44 1020.8
20201203004209 54 328 4.0 9.0 0.00 0.00 0.00 42 1020.7
20201203003204 54 311 5.0 10.0 0.00 0.00 0.00 41 1020.5
20201203002208 55 300 3.0 11.0 0.00 0.00 0.00 40 1020.3
20201203001204 55 344 3.0 11.0 0.00 0.00 0.00 39 1020.2
20201203000250 56 327 6.0 10.0 0.00 0.00 0.00 38 1020.0
20201202235213 57 311 6.0 12.0 0.00 0.00 0.00 37 1019.8
20201202234205 57 317 9.0 11.0 0.00 0.00 0.00 36 1019.6
20201202233206 58 321 2.0 10.0 0.00 0.00 0.00 35 1019.5
20201202232206 59 285 4.0 11.0 0.00 0.00 0.00 34 1019.3
20201202231204 59 343 5.0 9.0 0.00 0.00 0.00 33 1019.2
20201202230206 60 308 4.0 12.0 0.00 0.00 0.00 32 1019.1
20201202225205 61 323 8.0 13.0 0.00 0.00 0.00 32 1019.0
20201202224205 61 311 4.0 12.0 0.00 0.00 0.00 31 1018.9
20201202223205 62 344 5.0 13.0 0.00 0.00 0.00 31 1018.7
20201202222208 62 316 12.0 14.0 0.00 0.00 0.00 30 1018.6
20201202221207 62 313 10.0 14.0 0.00 0.00 0.00 30 1018.3
20201202220204 63 319 11.0 16.0 0.00 0.00 0.00 29 1018.3
20201202215204 63 317 12.0 13.0 0.00 0.00 0.00 30 1018.3
20201202214210 64 309 5.0 15.0 0.00 0.00 0.00 29 1018.2
20201202213205 64 355 9.0 15.0 0.00 0.00 0.00 30 1018.1
20201202212206 64 334 8.0 16.0 0.00 0.00 0.00 30 1018.0
20201202211215 64 303 4.0 13.0 0.00 0.00 0.00 31 1018.1
20201202210215 64 315 10.0 16.0 0.00 0.00 0.00 33 1018.0
20201202205205 64 304 4.0 16.0 0.00 0.00 0.00 33 1017.9
20201202204205 63 302 8.0 12.0 0.00 0.00 0.00 34 1018.1
20201202203205 63 295 5.0 11.0 0.00 0.00 0.00 35 1017.9
20201202202204 63 316 3.0 11.0 0.00 0.00 0.00 36 1018.0
20201202201207 63 267 4.0 12.0 0.00 0.00 0.00 38 1017.9
20201202200205 62 286 6.0 11.0 0.00 0.00 0.00 39 1017.8
20201202195208 62 280 4.0 13.0 0.00 0.00 0.00 40 1018.0
20201202194206 62 311 6.0 11.0 0.00 0.00 0.00 40 1017.9
20201202193206 62 306 9.0 11.0 0.00 0.00 0.00 43 1017.9
20201202192204 62 288 3.0 11.0 0.00 0.00 0.00 47 1017.9
20201202191206 62 348 4.0 9.0 0.00 0.00 0.00 57 1017.9
20201202190215 62 267 2.0 5.0 0.00 0.00 0.00 60 1017.9
20201202185207 61 336 3.0 4.0 0.00 0.00 0.00 60 1018.0
20201202184204 60 272 2.0 4.0 0.00 0.00 0.00 60 1018.1
20201202183204 60 300 2.0 5.0 0.00 0.00 0.00 60 1018.0
20201202182212 60 275 2.0 9.0 0.00 0.00 0.00 59 1018.2
20201202181206 61 301 3.0 9.0 0.00 0.00 0.00 60 1018.3
20201202180204 60 270 1.0 5.0 0.00 0.00 0.00 62 1018.4
20201202175206 60 290 2.0 4.0 0.00 0.00 0.00 65 1018.5
20201202174205 60 310 1.0 5.0 0.00 0.00 0.00 67 1018.4
20201202173206 60 295 4.0 5.0 0.00 0.00 0.00 67 1018.6
20201202172207 59 290 1.0 8.0 0.00 0.00 0.00 70 1018.6
20201202171205 58 331 3.0 8.0 0.00 0.00 0.00 75 1018.7
20201202170204 57 336 4.0 6.0 0.00 0.00 0.00 77 1018.9
20201202165205 56 301 3.0 8.0 0.00 0.00 0.00 79 1019.1
20201202164215 55 284 2.0 6.0 0.00 0.00 0.00 83 1019.3
20201202163255 54 309 0.0 5.0 0.00 0.00 0.00 84 1019.3
20201202162203 54 21 2.0 4.0 0.00 0.00 0.00 85 1019.3
20201202161204 53 338 2.0 3.0 0.00 0.00 0.00 86 1019.3
20201202160205 53 62 0.0 3.0 0.00 0.00 0.00 86 1019.4
20201202155206 53 42 2.0 2.0 0.00 0.00 0.00 87 1019.2
20201202154205 53 12 2.0 3.0 0.00 0.00 0.00 87 1018.9
20201202153213 53 313 2.0 3.0 0.00 0.00 0.00 88 1019.0
20201202152204 53 346 1.0 2.0 0.00 0.00 0.00 89 1018.9
20201202151207 52 325 1.0 4.0 0.00 0.00 0.00 89 1018.7
20201202150205 52 349 1.0 3.0 0.00 0.00 0.00 90 1018.5
20201202145203 51 311 1.0 2.0 0.00 0.00 0.00 90 1018.3
20201202144204 51 312 1.0 2.0 0.00 0.00 0.00 90 1018.3
20201202143207 50 243 0.0 0.0 0.00 0.00 0.00 91 1018.2
20201202142204 50 243 0.0 0.0 0.00 0.00 0.00 91 1018.1
20201202141203 49 242 0.0 0.0 0.00 0.00 0.00 91 1018.0
20201202140209 48 242 0.0 0.0 0.00 0.00 0.00 91 1018.0
20201202135204 47 242 1.0 1.0 0.00 0.00 0.00 90 1018.0
20201202134206 46 242 1.0 3.0 0.00 0.00 0.00 90 1017.9
20201202133206 46 246 0.0 0.0 0.00 0.00 0.00 90 1017.8
20201202132211 45 251 0.0 0.0 0.00 0.00 0.00 89 1017.9
20201202131206 44 251 0.0 0.0 0.00 0.00 0.00 90 1018.0
20201202130205 44 237 0.0 0.0 0.00 0.00 0.00 90 1017.8
20201202125204 43 237 0.0 0.0 0.00 0.00 0.00 89 1017.6
20201202124204 42 237 0.0 2.0 0.00 0.00 0.00 89 1017.4
20201202123204 42 199 0.0 0.0 0.00 0.00 0.00 88 1017.5
20201202122204 41 199 0.0 0.0 0.00 0.00 0.00 87 1017.4
20201202121204 41 199 0.0 0.0 0.00 0.00 0.00 87 1017.3
20201202120213 41 199 0.0 0.0 0.00 0.00 0.00 87 1017.1
20201202115208 41 199 0.0 0.0 0.00 0.00 0.00 87 1017.0
20201202114205 41 199 0.0 0.0 0.00 0.00 0.00 87 1016.8
20201202113212 41 199 0.0 0.0 0.00 0.00 0.00 86 1016.7
20201202112209 41 298 0.0 0.0 0.00 0.00 0.00 86 1016.6
20201202111205 42 298 0.0 2.0 0.00 0.00 0.00 85 1016.6
20201202110204 42 276 0.0 0.0 0.00 0.00 0.00 86 1016.6
20201202105204 43 205 0.0 0.0 0.00 0.00 0.00 85 1016.4
20201202104203 44 205 0.0 0.0 0.00 0.00 0.00 85 1016.3
20201202103205 44 223 0.0 0.0 0.00 0.00 0.00 87 1016.3
20201202102206 44 223 0.0 0.0 0.00 0.00 0.00 87 1016.1